Evansville Regional Airport Evansville US
ICAO: KEVV
IATA: EVV
Category: Medium
Scheduled Services: Yes

Elevation: 418 ft
TransAlt. 18000 ft.

Airport Communications:
APP/DEP:126.4
ATIS:120.2
CLNC DEL:126.6
CTAF:118.7
GND:121.9
TERRE HAUTE RDO:122.65
TWR:118.7
UNICOM:122.95

KEVV Zoom In..

Runways:

(A) RW 04 length 8020 ft width 150 ft
ILS 109.90 / hdg 38

(B) RW 09 length 3497 ft width 75 ft
---- / hdg 91

(C) RW 18 length 6286 ft width 150 ft
---- / hdg 181

(D) RW 22 length 8020 ft width 150 ft
ILS 109.90 / hdg 218

(E) RW 27 length 3497 ft width 75 ft
---- / hdg 271

(F) RW 36 length 6286 ft width 150 ft
---- / hdg 1

Location; KEVV
Day. 20 / Time. 02.54 Zulu
* Altimeter: 29.89
* Temperature: 26° c. 78.8°f.
* Wind from: 000° Speed 00 kn.
Dewpoint: 21° c.
Visibility: 10 Statute Miles.
Clouds: Clear (automated report).

KEVV 200254Z 00000KT 10SM CLR 26/21 A2989 RMK AO2 SLP119 T02560206


Wind - Calm.

 
 
jpsmedia.com for Web Design worldairports.se 2018   terms of use